Location: Aalsum
(53.3404°N, 6.0062°E)
Time: 09:37:10
(UTC+00:00)

IRIDIUM 104 - Pass Details

Date: 28 January 2023
Orbit: 776 x 779 km, 86.4° (Epoch: 20 March)

Event Time Altitude Azimuth Distance (km) Brightness Sun altitude
Rises 18:24:35 0° 357° (N) 3,279 7.6 -19.7°
Reaches altitude 10° 18:27:01 10° 3° (N) 2,346 6.7 -20.1°
Maximum altitude 18:32:09 52° 80° (E) 965 4.4 -20.8°
Enters shadow 18:35:09 24° 147° (SSE) 1,583 5.6 -21.3°
